Showing default

QIANFAN-23, 61556

Orbit data source: Space-Track

QIANFAN-23, 61556 is a Chinese payload satellite in LEO that was launched on Tue, 15 Oct 2024 UTC via a CHANG ZHENG 6A launch vehicle from the Taiyaun Space Center, China (TSC). Payload-class satellites include a variety of spacecraft equipped with specific instruments for various scientific and technological missions. These include communications satellites like Starlink; space stations such as the ISS; scientific satellites like the Hubble; Earth observation satellites from companies like Planet Labs, Umbra, and HawkEye 360; GPS; miniature CubeSats for education and research; and military/defense satellites.

Loading next visibility...
Identifier
61556, 2024-185E
Orbit
LEO
Country
Flag of CNCN / PRC
Related business
Manufacturer
GESIH/SECM
Mission
Partially operational Commercial Communications
Bus & Motor
QIANFAN, Unknown motor
Mass
267 kg wet, ~267 kg dry
Launch date (UTC)
2024-10-15 (1 year ago)
Launch vehicle
CHANG ZHENG 6A
Launch site
Taiyaun Space Center, China (TSC)
Object type
Payload
Rocket body
Debris
Shape & HBR
Box + 1 Pan, 5.0 m
Radar Cross Section
13.200 m², Large (>1 m²)

Expand to show TLE details & history
Last TLE update: 7 hours ago

TLE from 7 hours ago
0 QIANFAN-23
1 61556U 24185E   25295.97251259  .00001017  00000-0  50688-3 0  9995
2 61556  88.9772  83.5862 0009756 114.6833 245.5371 14.16210990 62560
Epoch: 2025-10-22T23:20Z
TLE epoch observation values (Epoch: 2025-10-22T23:20:25.087Z)
Latitude
-0.00012°
Longitude
61.84322°
Altitude
844.165 km
Speed
7.429 km/s
True Right ascension
05h 34m 20s
True Declination
0° 00' 00"
Sunlit
Object was in full shadow at epoch
Visualization orbit readout
Latitude
Unknown
Longitude
Unknown
Altitude
Unknown
Speed
Unknown
Apparent Right ascension
Unknown
Apparent Declination
Unknown
Sunlit
N/A
Visualization observer readout
Local Sidereal Time
01:48:47
Azimuth
Unknown
Elevation
Unknown
Doppler factor
Unknown
Orbital elements
Apogee altitude
842.19 km
Perigee altitude
828.115 km
Semi-major axis
7,213.289 km
Eccentricity
0.00098
Inclination
88.9772°
RAAN
83.5862°
Arg. of periapsis
114.6833°
True anomaly
245.43539°
Mean anomaly
245.5371°
Eccentric anomaly
245.48624°
Mean motion
3.54277 °/min
Orbital period
101.62 mins
BSTAR
0.00050688
Loading maneuver chart data...
Computing Atmospheric mass density...
Loading historical data...
Loading historical data...
Loading historical data...
Loading historical data...
Loading historical data...
Loading historical data...
Loading historical data...

Documentation

Showing up to 5 results
|